Location: Oakland Fire Department Station 1
(37.8079°N, 122.2753°W)
Time: 02:52:10
(UTC+00:00)

Daily predictions for brighter satellites

Satellite Brightness Start Highest point End
(mag) Time Altitude Azimuth Time Altitude Azimuth Time Altitude Azimuth
Cosmos 1726 Rocket 4.0 01:51:17 10° SSE 01:55:26 42° E 01:59:34 10° NNE
Okean-O 2.7 01:57:54 10° SSE 02:02:19 87° WSW 02:06:47 10° NNW
Cosmos 2285 Rocket 4.1 01:56:46 10° N 02:03:06 56° ENE 02:09:21 10° SE
Cosmos 2058 Rocket 3.6 02:02:19 10° SSE 02:06:16 35° E 02:10:14 10° NNE
Cosmos 2228 3.0 02:03:03 10° S 02:07:22 62° E 02:11:41 10° NNE
Cosmos 1486 Rocket 4.3 02:02:41 10° NNW 02:08:01 78° WSW 02:13:20 10° SSE
Lacrosse 5 rocket 2.3 02:04:54 10° NNW 02:08:12 27° NE 02:11:31 11° E
Atlas Centaur 2 4.3 02:04:31 10° WSW 02:09:31 22° SSW 02:13:45 10° SSE
SL-14 R/B 4.5 02:06:53 10° NNW 02:10:35 46° W 02:14:16 10° SSW
YAOGAN 6 3.0 02:08:16 10° SE 02:11:45 41° ENE 02:15:13 10° N
OAO 3 Rocket 3.7 02:07:15 10° WSW 02:12:02 51° SSE 02:16:26 12° E
ASTEX 1 3.5 02:08:08 10° NNE 02:13:01 57° E 02:17:54 10° S
Cosmos 1908 4.4 02:10:18 10° SE 02:13:24 23° E 02:16:30 10° NE
Cosmos 1354 Rocket 4.1 02:08:26 10° N 02:13:35 56° ENE 02:18:42 10° SSE
OAO 2 Rocket 3.7 02:09:31 10° WSW 02:14:45 65° S 02:19:29 13° E
COSMOS 2406 4.1 02:13:37 10° N 02:18:32 28° ENE 02:23:25 10° ESE
Cosmos 921 Rocket 3.0 02:14:10 10° S 02:18:38 69° ESE 02:23:07 10° NNE
CZ-4 R/B 4.4 02:15:04 10° SSE 02:19:06 61° ENE 02:23:11 10° N
CZ-4 R/B 1.4 02:16:43 10° SSE 02:20:46 61° ENE 02:24:55 10° N
Cosmos 968 Rocket 3.4 02:16:49 10° NNW 02:22:07 78° ENE 02:27:21 10° SSE
Cosmos 1328 4.5 02:19:16 10° NNE 02:22:50 31° ENE 02:26:23 10° SE
CSL-04 Debris 4.3 02:17:42 10° SSE 02:22:58 55° ENE 02:28:18 10° N
Ariane Rocket 4.0 02:19:56 10° ESE 02:24:04 26° ENE 02:28:14 10° NNE
FengYun 1-2 T 4.2 02:19:55 10° SSE 02:25:33 76° ENE 02:31:11 10° N
COSMO-SKYMED 1 2.9 02:24:48 10° N 02:29:08 70° WNW 02:33:26 10° SSW
CZ-4C R/B 3.2 02:25:31 10° NW 02:33:03 79° WSW 02:41:24 10° SSE
Meteor 2-10 3.9 02:32:34 10° S 02:37:40 70° E 02:42:41 10° NNE
USA 116 3.2 02:34:32 10° NNE 02:37:41 86° WNW 02:41:03 10° SSW
EO 1 Delta rocket 3.9 02:33:28 10° SSE 02:38:03 55° ENE 02:42:36 10° N
Cosmos 1503 Rocket 4.2 02:33:35 10° NNW 02:38:46 76° WSW 02:43:54 10° S
Cosmos 1844 Rocket 3.9 02:33:39 10° SW 02:39:01 44° WNW 02:44:25 10° N
ADEOS Rocket 4.5 02:33:55 10° NE 02:39:24 21° E 02:44:37 10° SE
Meteor 1-16 Rocket 4.3 02:35:51 10° S 02:41:31 82° W 02:47:00 10° N
Cosmos 1953 Rocket 3.7 02:37:28 10° N 02:41:51 74° W 02:46:09 10° S
H-2A R/B 3.9 02:51:41 14° NE 02:51:41 14° NE 02:53:17 10° NNE
Lacrosse 5 3.9 02:48:21 10° N 02:50:36 13° NNE 02:51:56 12° NE
CZ-2D R/B 3.2 02:49:55 10° SSE 02:53:40 60° ENE 02:57:28 10° N
Cosmos 292 Rocket 3.8 02:48:57 10° SSW 02:53:41 81° WNW 02:58:28 10° NNE
Cosmos 1605 Rocket 3.9 02:48:23 10° N 02:54:30 60° E 03:00:31 10° SSE
Cosmos 2278 Rocket 2.2 02:50:22 10° S 02:55:54 59° ESE 03:01:29 10° NNE
Cosmos 1727 Rocket 4.1 02:50:45 10° SSE 02:56:38 48° E 03:02:32 10° NNE
Cosmos 1356 4.0 02:53:32 10° SSW 02:56:54 56° W 03:00:18 10° N
Cosmos 1271 Rocket 4.4 02:54:48 10° NNW 02:58:29 37° W 03:02:11 10° SSW
USA 238 DEB 3.9 02:52:52 10° S 02:59:05 44° ESE 03:03:21 20° NE
SL-4 R/B 1.5 02:55:18 10° NW 02:59:05 82° NE 02:59:56 50° ESE
USA 238 3.9 02:52:59 10° S 02:59:11 44° ESE 03:03:22 21° NE
Cosmos 1726 3.4 03:02:10 10° SSW 03:05:39 41° W 03:09:08 10° N
Shenzhou-11 Module 3.4 03:04:13 10° WNW 03:06:23 27° NNW 03:06:23 27° NNW
Cosmos 1934 Rocket 4.4 03:02:09 10° NNW 03:08:26 68° W 03:14:43 10° S
Cosmos 1812 Rocket 3.7 03:04:59 10° SSE 03:11:27 26° NNE 03:13:30 10° NNE
ATLAS 5 CENTAUR R/B 4.4 03:08:08 10° WNW 03:10:07 13° NW 03:12:11 10° N
USA 234 3.7 03:10:48 34° E 03:12:19 38° SE 03:18:18 10° SSW
Abrixas rocket 2.6 03:11:40 10° WSW 03:14:12 56° W 03:14:12 56° W
Cosmos 1703 3.7 03:11:29 10° NNW 03:15:23 61° W 03:19:13 10° S
YAOGAN 1 4.1 03:14:08 10° SSW 03:18:08 37° W 03:22:10 10° NNW
Cosmos 1242 Rocket 4.4 03:21:35 10° NNW 03:24:54 32° W 03:28:12 10° SSW
NOSS 3-2 (A) 3.3 03:20:32 10° SSW 03:25:58 54° ESE 03:26:23 53° E
NOAA 11 4.4 03:20:59 10° S 03:26:25 69° WSW 03:31:51 10° NNW
Cosmos 2100 Rocket 4.2 03:28:22 10° N 03:33:31 46° NE 03:33:31 46° NE
Cosmos 1939 Rocket 4.0 03:33:10 16° SSW 03:36:01 43° W 03:39:50 10° NNW
Cosmos 1833 Rocket 2.8 03:39:27 10° NNW 03:44:15 58° NNE 03:44:15 58° NNE
Cosmos 1153 Rocket 4.4 03:40:39 10° N 03:46:47 80° W 03:50:40 24° S
Lacrosse 5 rocket 2.8 03:43:51 10° WNW 03:47:12 31° WSW 03:47:12 31° WSW
OAO 3 Rocket 4.0 03:50:29 10° W 03:54:14 48° WSW 03:54:14 48° WSW
OAO 2 Rocket 4.2 03:54:14 10° W 03:58:27 47° SW 03:58:27 47° SW
Ariane Rocket 4.5 03:58:14 10° SSW 04:02:50 34° W 04:07:28 10° NNW
COSMOS 2406 4.4 03:57:36 10° NW 04:02:55 39° WSW 04:05:41 24° SSW
Cosmos 2082 Rocket 3.1 03:57:54 10° NNW 04:01:27 38° N 04:01:27 38° N
ADEOS Rocket 3.6 04:17:48 10° N 04:25:29 71° WNW 04:32:37 10° SSW
H-2A R/B 4.0 04:32:19 24° NNW 04:32:19 24° NNW 04:34:23 10° NNW
Lacrosse 5 4.2 04:29:53 10° NNW 04:31:08 17° NNW 04:31:08 17° NNW
H-2A R/B 4.1 03:48:19 10° WSW 04:35:51 62° S 04:36:36 61° SSE
COSMOS 2455 4.4 11:03:09 31° NE 11:03:09 31° NE 11:06:14 10° NE
IDEFIX/ARIANE 42P 4.4 11:04:29 10° NE 11:08:00 27° ENE 11:08:00 27° ENE
Cosmos 2360 Rocket 4.2 11:14:03 20° NNE 11:14:03 20° NNE 11:15:44 10° NNE
USA 267 4.3 11:04:39 10° NE 11:08:37 36° NNE 11:08:37 36° NNE
Cosmos 1844 Rocket 3.8 11:36:14 35° SE 11:36:14 35° SE 11:39:26 10° SSE
BREEZE-M DEB (TANK) 4.3 11:39:32 33° NNE 11:39:32 33° NNE 11:41:21 10° NE
USA 234 3.6 11:35:53 10° ESE 11:42:16 59° NE 11:44:31 40° NNW
Cosmos 2333 Rocket 2.3 11:47:54 70° E 11:47:54 70° E 11:53:19 10° NNE
Cosmos 2278 Rocket 4.5 11:47:09 10° N 11:51:27 22° NE 11:55:44 10° ESE
